Location: Pedholt
(56.0260°N, 10.2097°E)
Time: 05:58:13
(UTC+00:00)

Cosmos 1833 Rocket - Pass Details

Date: 14 July 2020
Orbit: 832 x 840 km, 71.0° (Epoch: 14 August)

Event Time Altitude Azimuth Distance (km) Brightness Sun altitude
Exits shadow 00:44:46 - 166° (SSE) 2,571 4.7 -10.5°
Reaches altitude 10° 00:45:10 10° 164° (SSE) 2,438 4.6 -10.5°
Maximum altitude 00:49:54 29° 106° (ESE) 1,491 4.0 -10.3°
Drops below altitude 10° 00:54:39 10° 48° (NE) 2,456 6.2 -10.1°
Sets 00:57:22 0° 38° (NE) 3,396 7.5 -9.9°
